| time (UTC) | temp C | wind direction | speed KPH | gust KPH | rain 1hr cm | rain 24hr cm | rain mn cm | humidity % | barometer mb |
| 20260503200514 | 16 | 227 | 3.2 | 14.5 | 0.00 | 0.00 | 0.00 | 49 | 1014.0 |
| 20260503200043 | 16 | 156 | 4.8 | 17.7 | 0.00 | 0.00 | 0.00 | 46 | 1014.3 |
| 20260503195517 | 16 | 201 | 3.2 | 17.7 | 0.00 | 0.00 | 0.00 | 45 | 1014.3 |
| 20260503195017 | 16 | 194 | 4.8 | 16.1 | 0.00 | 0.00 | 0.00 | 46 | 1014.5 |
| 20260503194533 | 16 | 274 | 3.2 | 16.1 | 0.00 | 0.00 | 0.00 | 47 | 1014.8 |
| 20260503194015 | 16 | 9 | 3.2 | 16.1 | 0.00 | 0.00 | 0.00 | 47 | 1015.0 |
| 20260503193516 | 16 | 312 | 4.8 | 16.1 | 0.00 | 0.00 | 0.00 | 45 | 1014.9 |
| 20260503193034 | 16 | 248 | 6.4 | 16.1 | 0.00 | 0.00 | 0.00 | 47 | 1014.9 |
| 20260503192515 | 16 | 336 | 3.2 | 16.1 | 0.00 | 0.00 | 0.00 | 48 | 1014.6 |
| 20260503192018 | 16 | 326 | 3.2 | 11.3 | 0.00 | 0.00 | 0.00 | 45 | 1014.7 |
| 20260503191531 | 16 | 80 | 3.2 | 12.9 | 0.00 | 0.00 | 0.00 | 46 | 1014.7 |
| 20260503191019 | 16 | 249 | 4.8 | 17.7 | 0.00 | 0.00 | 0.00 | 45 | 1014.8 |
| 20260503190512 | 16 | 316 | 6.4 | 17.7 | 0.00 | 0.00 | 0.00 | 44 | 1014.7 |
| 20260503190043 | 16 | 186 | 4.8 | 14.5 | 0.00 | 0.00 | 0.00 | 44 | 1014.8 |
| 20260503185514 | 16 | 290 | 4.8 | 22.5 | 0.00 | 0.00 | 0.00 | 44 | 1014.8 |
| 20260503185018 | 16 | 292 | 4.8 | 22.5 | 0.00 | 0.00 | 0.00 | 47 | 1014.9 |
| 20260503184535 | 17 | 223 | 4.8 | 22.5 | 0.00 | 0.00 | 0.00 | 45 | 1015.2 |
| 20260503184016 | 16 | 213 | 6.4 | 22.5 | 0.00 | 0.00 | 0.00 | 46 | 1015.4 |
| 20260503183516 | 15 | 244 | 4.8 | 14.5 | 0.00 | 0.00 | 0.00 | 47 | 1015.6 |
| 20260503183033 | 15 | 311 | 4.8 | 14.5 | 0.00 | 0.00 | 0.00 | 45 | 1015.7 |
| 20260503182515 | 15 | 283 | 4.8 | 12.9 | 0.00 | 0.00 | 0.00 | 45 | 1015.8 |
| 20260503182016 | 15 | 352 | 3.2 | 17.7 | 0.00 | 0.00 | 0.00 | 45 | 1015.8 |
| 20260503181533 | 15 | 275 | 4.8 | 17.7 | 0.00 | 0.00 | 0.00 | 44 | 1016.1 |
| 20260503181017 | 15 | 313 | 6.4 | 19.3 | 0.00 | 0.00 | 0.00 | 44 | 1016.1 |
| 20260503180516 | 15 | 245 | 4.8 | 19.3 | 0.00 | 0.00 | 0.00 | 43 | 1016.1 |
| 20260503180033 | 15 | 252 | 3.2 | 12.9 | 0.00 | 0.00 | 0.00 | 45 | 1016.2 |
| 20260503175515 | 15 | 280 | 4.8 | 16.1 | 0.00 | 0.00 | 0.00 | 43 | 1016.3 |
| 20260503175014 | 15 | 27 | 4.8 | 16.1 | 0.00 | 0.00 | 0.00 | 43 | 1016.3 |
| 20260503174530 | 15 | 224 | 1.6 | 19.3 | 0.00 | 0.00 | 0.00 | 45 | 1016.4 |
| 20260503174017 | 15 | 168 | 6.4 | 19.3 | 0.00 | 0.00 | 0.00 | 44 | 1016.6 |
| 20260503173518 | 15 | 165 | 4.8 | 14.5 | 0.00 | 0.00 | 0.00 | 45 | 1016.8 |
| 20260503173049 | 15 | 175 | 3.2 | 20.9 | 0.00 | 0.00 | 0.00 | 44 | 1017.0 |
| 20260503172517 | 15 | 259 | 4.8 | 20.9 | 0.00 | 0.00 | 0.00 | 42 | 1016.9 |
| 20260503172017 | 15 | 191 | 8.0 | 19.3 | 0.00 | 0.00 | 0.00 | 42 | 1016.9 |
| 20260503171536 | 15 | 238 | 6.4 | 19.3 | 0.00 | 0.00 | 0.00 | 43 | 1017.1 |
| 20260503171016 | 15 | 313 | 4.8 | 22.5 | 0.00 | 0.00 | 0.00 | 45 | 1017.0 |
| 20260503170516 | 15 | 146 | 8.0 | 22.5 | 0.00 | 0.00 | 0.00 | 42 | 1017.0 |
| 20260503150515 | 13 | 46 | 4.8 | 22.5 | 0.00 | 0.00 | 0.00 | 47 | 1018.2 |
| 20260503131018 | 10 | 261 | 3.2 | 12.9 | 0.00 | 0.00 | 0.00 | 55 | 1018.6 |
| 20260503130518 | 10 | 244 | 1.6 | 8.0 | 0.00 | 0.00 | 0.00 | 57 | 1018.6 |
| 20260503110517 | 3 | 0 | 0.0 | 3.2 | 0.00 | 0.00 | 0.00 | 75 | 1018.1 |
| 20260503081549 | 2 | 0 | 0.0 | 0.0 | 0.00 | 0.00 | 0.00 | 82 | 1017.6 |
| 20260503081016 | 2 | 0 | 0.0 | 0.0 | 0.00 | 0.00 | 0.00 | 83 | 1017.7 |
| 20260503080516 | 2 | 0 | 0.0 | 0.0 | 0.00 | 0.00 | 0.00 | 84 | 1017.7 |
| 20260503072518 | 2 | 0 | 0.0 | 0.0 | 0.00 | 0.00 | 0.00 | 84 | 1017.5 |
| 20260503072016 | 2 | 0 | 0.0 | 0.0 | 0.00 | 0.00 | 0.00 | 85 | 1017.5 |
| 20260503071539 | 2 | 0 | 0.0 | 0.0 | 0.00 | 0.00 | 0.00 | 85 | 1017.5 |
| 20260503071018 | 2 | 0 | 0.0 | 0.0 | 0.00 | 0.00 | 0.00 | 85 | 1017.5 |
| 20260503070517 | 2 | 0 | 0.0 | 0.0 | 0.00 | 0.00 | 0.00 | 85 | 1017.5 |
| 20260503055020 | 2 | 0 | 0.0 | 0.0 | 0.00 | 0.00 | 0.00 | 84 | 1018.0 |
| 20260503054537 | 2 | 0 | 0.0 | 0.0 | 0.00 | 0.00 | 0.00 | 85 | 1018.1 |
| 20260503054017 | 2 | 0 | 0.0 | 0.0 | 0.00 | 0.00 | 0.00 | 85 | 1018.0 |
| 20260503053517 | 2 | 0 | 0.0 | 0.0 | 0.00 | 0.00 | 0.00 | 85 | 1018.1 |
| 20260503053031 | 2 | 0 | 0.0 | 0.0 | 0.00 | 0.00 | 0.00 | 84 | 1018.2 |
| 20260503052524 | 2 | 0 | 0.0 | 0.0 | 0.00 | 0.00 | 0.00 | 84 | 1018.2 |
| 20260503052018 | 2 | 0 | 0.0 | 0.0 | 0.00 | 0.00 | 0.00 | 84 | 1018.2 |
| 20260503051532 | 2 | 0 | 0.0 | 0.0 | 0.00 | 0.00 | 0.00 | 84 | 1018.1 |
| 20260503051017 | 2 | 0 | 0.0 | 0.0 | 0.00 | 0.00 | 0.00 | 84 | 1018.2 |
| 20260503050517 | 2 | 0 | 0.0 | 0.0 | 0.00 | 0.00 | 0.00 | 84 | 1018.2 |
| 20260503050036 | 2 | 0 | 0.0 | 0.0 | 0.00 | 0.00 | 0.00 | 84 | 1018.3 |
| 20260503045517 | 2 | 0 | 0.0 | 0.0 | 0.00 | 0.00 | 0.00 | 83 | 1018.2 |
| 20260503045020 | 2 | 0 | 0.0 | 0.0 | 0.00 | 0.00 | 0.00 | 83 | 1018.3 |
| 20260503044541 | 3 | 0 | 0.0 | 0.0 | 0.00 | 0.00 | 0.00 | 82 | 1018.3 |
| 20260503044016 | 3 | 0 | 0.0 | 0.0 | 0.00 | 0.00 | 0.00 | 82 | 1018.3 |
| 20260503043517 | 3 | 0 | 0.0 | 0.0 | 0.00 | 0.00 | 0.00 | 81 | 1018.2 |
| 20260503043034 | 3 | 0 | 0.0 | 0.0 | 0.00 | 0.00 | 0.00 | 82 | 1018.1 |
| 20260503042516 | 3 | 0 | 0.0 | 0.0 | 0.00 | 0.00 | 0.00 | 81 | 1018.3 |
| 20260503042017 | 3 | 0 | 0.0 | 0.0 | 0.00 | 0.00 | 0.00 | 81 | 1018.1 |
| 20260503041538 | 3 | 0 | 0.0 | 0.0 | 0.00 | 0.00 | 0.00 | 81 | 1018.2 |
| 20260503041018 | 3 | 0 | 0.0 | 0.0 | 0.00 | 0.00 | 0.00 | 80 | 1018.1 |
| 20260503040517 | 3 | 0 | 0.0 | 0.0 | 0.00 | 0.00 | 0.00 | 80 | 1018.2 |
| 20260503040031 | 3 | 0 | 0.0 | 0.0 | 0.00 | 0.00 | 0.00 | 80 | 1018.2 |
| 20260503035518 | 3 | 0 | 0.0 | 0.0 | 0.00 | 0.00 | 0.00 | 80 | 1018.2 |
| 20260503035018 | 3 | 0 | 0.0 | 0.0 | 0.00 | 0.00 | 0.00 | 80 | 1018.2 |
| 20260503034536 | 3 | 0 | 0.0 | 0.0 | 0.00 | 0.00 | 0.00 | 80 | 1018.2 |
| 20260503034017 | 3 | 0 | 0.0 | 0.0 | 0.00 | 0.00 | 0.00 | 79 | 1018.3 |
| 20260503033521 | 3 | 0 | 0.0 | 0.0 | 0.00 | 0.00 | 0.00 | 78 | 1018.3 |
| 20260503033035 | 3 | 0 | 0.0 | 0.0 | 0.00 | 0.00 | 0.00 | 78 | 1018.3 |
| 20260503032517 | 3 | 0 | 0.0 | 0.0 | 0.00 | 0.00 | 0.00 | 77 | 1018.3 |
| 20260503032017 | 3 | 0 | 0.0 | 0.0 | 0.00 | 0.00 | 0.00 | 77 | 1018.3 |
| 20260503031541 | 3 | 0 | 0.0 | 0.0 | 0.00 | 0.00 | 0.00 | 76 | 1018.3 |
| 20260503031016 | 3 | 0 | 0.0 | 0.0 | 0.00 | 0.00 | 0.00 | 75 | 1018.3 |
| 20260503030522 | 4 | 0 | 0.0 | 1.6 | 0.00 | 0.00 | 0.00 | 74 | 1018.3 |
| 20260503030034 | 4 | 0 | 0.0 | 1.6 | 0.00 | 0.00 | 0.00 | 74 | 1018.4 |
| 20260503025518 | 4 | 0 | 0.0 | 0.0 | 0.00 | 0.00 | 0.00 | 73 | 1018.4 |
| 20260503025016 | 4 | 0 | 0.0 | 0.0 | 0.00 | 0.00 | 0.00 | 72 | 1018.4 |
| 20260503024534 | 4 | 0 | 0.0 | 0.0 | 0.00 | 0.00 | 0.00 | 71 | 1018.5 |
| 20260503024017 | 4 | 0 | 0.0 | 0.0 | 0.00 | 0.00 | 0.00 | 70 | 1018.3 |
| 20260503023516 | 5 | 0 | 0.0 | 0.0 | 0.00 | 0.00 | 0.00 | 69 | 1018.3 |
| 20260503023034 | 5 | 0 | 0.0 | 0.0 | 0.00 | 0.00 | 0.00 | 69 | 1018.2 |
| 20260503022517 | 5 | 0 | 0.0 | 0.0 | 0.00 | 0.00 | 0.00 | 70 | 1018.2 |
| 20260503022020 | 5 | 0 | 0.0 | 0.0 | 0.00 | 0.00 | 0.00 | 69 | 1018.2 |
| 20260503021531 | 5 | 0 | 0.0 | 0.0 | 0.00 | 0.00 | 0.00 | 69 | 1018.1 |
| 20260503021017 | 5 | 0 | 0.0 | 0.0 | 0.00 | 0.00 | 0.00 | 69 | 1018.1 |
| 20260503020518 | 5 | 0 | 0.0 | 0.0 | 0.00 | 0.00 | 0.00 | 69 | 1018.1 |
| 20260503020035 | 5 | 0 | 0.0 | 0.0 | 0.00 | 0.00 | 0.00 | 70 | 1017.9 |
| 20260503015517 | 5 | 0 | 0.0 | 0.0 | 0.00 | 0.00 | 0.00 | 71 | 1017.9 |
| 20260503015017 | 6 | 0 | 0.0 | 0.0 | 0.00 | 0.00 | 0.00 | 69 | 1017.8 |
| 20260503014537 | 6 | 0 | 0.0 | 0.0 | 0.00 | 0.00 | 0.00 | 69 | 1017.8 |
| 20260503014018 | 6 | 0 | 0.0 | 0.0 | 0.00 | 0.00 | 0.00 | 67 | 1017.7 |
| 20260503013518 | 6 | 0 | 0.0 | 0.0 | 0.00 | 0.00 | 0.00 | 66 | 1017.8 |
| 20260503013037 | 6 | 0 | 0.0 | 0.0 | 0.00 | 0.00 | 0.00 | 67 | 1017.7 |
| 20260503012517 | 6 | 0 | 0.0 | 0.0 | 0.00 | 0.00 | 0.00 | 64 | 1017.7 |
| 20260503012020 | 6 | 0 | 0.0 | 1.6 | 0.00 | 0.00 | 0.00 | 64 | 1017.7 |
| 20260503011533 | 7 | 0 | 0.0 | 1.6 | 0.00 | 0.00 | 0.00 | 64 | 1017.6 |
| 20260503011016 | 7 | 0 | 0.0 | 1.6 | 0.00 | 0.00 | 0.00 | 63 | 1017.7 |
| 20260503010514 | 8 | 329 | 0.0 | 1.6 | 0.00 | 0.00 | 0.00 | 54 | 1017.7 |
| 20260503010033 | 8 | 0 | 0.0 | 1.6 | 0.00 | 0.00 | 0.00 | 47 | 1017.6 |
| 20260503005515 | 8 | 0 | 0.0 | 3.2 | 0.00 | 0.00 | 0.00 | 47 | 1017.7 |
| 20260503005020 | 8 | 0 | 0.0 | 3.2 | 0.00 | 0.00 | 0.00 | 47 | 1017.7 |
| 20260503004555 | 8 | 348 | 1.6 | 4.8 | 0.00 | 0.00 | 0.00 | 46 | 1017.7 |
| 20260503004016 | 8 | 328 | 0.0 | 6.4 | 0.00 | 0.00 | 0.00 | 45 | 1017.7 |
| 20260503003517 | 9 | 5 | 1.6 | 8.0 | 0.00 | 0.00 | 0.00 | 44 | 1017.8 |
| 20260503003035 | 9 | 317 | 3.2 | 9.7 | 0.00 | 0.00 | 0.00 | 45 | 1017.8 |
| 20260503002520 | 9 | 341 | 3.2 | 11.3 | 0.00 | 0.00 | 0.00 | 44 | 1017.6 |
| 20260503002017 | 9 | 331 | 4.8 | 12.9 | 0.00 | 0.00 | 0.00 | 44 | 1017.6 |
| 20260503001534 | 9 | 5 | 3.2 | 12.9 | 0.00 | 0.00 | 0.00 | 44 | 1017.5 |
| 20260503001017 | 10 | 42 | 4.8 | 12.9 | 0.00 | 0.00 | 0.00 | 44 | 1017.5 |
| 20260503000514 | 10 | 303 | 4.8 | 12.9 | 0.00 | 0.00 | 0.00 | 44 | 1017.5 |
| 20260503000044 | 10 | 16 | 3.2 | 17.7 | 0.00 | 0.00 | 0.00 | 44 | 1017.3 |
| 20260502235514 | 10 | 351 | 4.8 | 17.7 | 0.00 | 0.00 | 0.00 | 45 | 1017.3 |
| 20260502235016 | 10 | 78 | 1.6 | 6.4 | 0.00 | 0.00 | 0.00 | 43 | 1017.3 |
| 20260502234534 | 10 | 0 | 1.6 | 11.3 | 0.00 | 0.00 | 0.00 | 44 | 1017.3 |
| 20260502234016 | 10 | 36 | 1.6 | 11.3 | 0.00 | 0.00 | 0.00 | 43 | 1017.4 |
| 20260502233518 | 10 | 333 | 3.2 | 8.0 | 0.00 | 0.00 | 0.00 | 43 | 1017.4 |
| 20260502233033 | 10 | 355 | 1.6 | 6.4 | 0.00 | 0.00 | 0.00 | 44 | 1017.3 |
| 20260502232519 | 10 | 355 | 1.6 | 14.5 | 0.00 | 0.00 | 0.00 | 44 | 1017.4 |
| 20260502232016 | 10 | 53 | 1.6 | 16.1 | 0.00 | 0.00 | 0.00 | 46 | 1017.5 |
| 20260502231531 | 10 | 23 | 6.4 | 16.1 | 0.00 | 0.00 | 0.00 | 43 | 1017.5 |
| 20260502231015 | 10 | 20 | 4.8 | 16.1 | 0.00 | 0.00 | 0.00 | 42 | 1017.6 |
| 20260502230515 | 10 | 355 | 4.8 | 14.5 | 0.00 | 0.00 | 0.00 | 42 | 1017.6 |
| 20260502230035 | 11 | 54 | 8.0 | 16.1 | 0.00 | 0.00 | 0.00 | 45 | 1017.6 |
| 20260502225517 | 11 | 53 | 4.8 | 16.1 | 0.00 | 0.00 | 0.00 | 43 | 1017.6 |
| 20260502225016 | 11 | 26 | 3.2 | 14.5 | 0.00 | 0.00 | 0.00 | 43 | 1017.6 |
| 20260502224532 | 11 | 42 | 3.2 | 17.7 | 0.00 | 0.00 | 0.00 | 43 | 1017.5 |
| 20260502224018 | 11 | 57 | 9.7 | 17.7 | 0.00 | 0.00 | 0.00 | 42 | 1017.6 |
| 20260502223520 | 11 | 343 | 6.4 | 12.9 | 0.00 | 0.00 | 0.00 | 39 | 1017.6 |
| 20260502223034 | 11 | 35 | 3.2 | 14.5 | 0.00 | 0.00 | 0.00 | 44 | 1017.6 |
| 20260502222517 | 10 | 40 | 4.8 | 16.1 | 0.00 | 0.00 | 0.00 | 44 | 1017.6 |
| 20260502222018 | 10 | 29 | 6.4 | 17.7 | 0.00 | 0.00 | 0.00 | 42 | 1017.6 |
| 20260502221536 | 10 | 63 | 6.4 | 17.7 | 0.00 | 0.00 | 0.00 | 42 | 1017.6 |
| 20260502221018 | 10 | 39 | 8.0 | 24.1 | 0.00 | 0.00 | 0.00 | 42 | 1017.6 |
| 20260502220516 | 10 | 338 | 4.8 | 24.1 | 0.00 | 0.00 | 0.00 | 45 | 1017.5 |
| 20260502220041 | 10 | 72 | 9.7 | 19.3 | 0.00 | 0.00 | 0.00 | 46 | 1017.5 |
| 20260502215516 | 11 | 56 | 6.4 | 19.3 | 0.00 | 0.00 | 0.00 | 44 | 1017.5 |
| 20260502215017 | 11 | 26 | 6.4 | 17.7 | 0.00 | 0.00 | 0.00 | 44 | 1017.5 |
| 20260502214532 | 11 | 58 | 8.0 | 20.9 | 0.00 | 0.00 | 0.00 | 48 | 1017.5 |
| 20260502214017 | 11 | 44 | 8.0 | 20.9 | 0.00 | 0.00 | 0.00 | 43 | 1017.5 |
| 20260502213517 | 11 | 70 | 6.4 | 19.3 | 0.00 | 0.00 | 0.00 | 44 | 1017.5 |
| 20260502213035 | 11 | 40 | 6.4 | 19.3 | 0.00 | 0.00 | 0.00 | 45 | 1017.6 |
| 20260502212515 | 11 | 26 | 6.4 | 14.5 | 0.00 | 0.00 | 0.00 | 44 | 1017.6 |
| 20260502212017 | 11 | 28 | 4.8 | 14.5 | 0.00 | 0.00 | 0.00 | 46 | 1017.3 |
| 20260502211535 | 10 | 44 | 6.4 | 16.1 | 0.00 | 0.00 | 0.00 | 46 | 1017.3 |
| 20260502211017 | 10 | 39 | 6.4 | 19.3 | 0.00 | 0.00 | 0.00 | 45 | 1017.3 |
| 20260502210514 | 10 | 51 | 8.0 | 19.3 | 0.00 | 0.00 | 0.00 | 44 | 1017.3 |
| 20260502210033 | 11 | 344 | 9.7 | 19.3 | 0.00 | 0.00 | 0.00 | 43 | 1017.4 |
| 20260502205515 | 12 | 32 | 6.4 | 20.9 | 0.00 | 0.00 | 0.00 | 45 | 1017.4 |
| 20260502205015 | 11 | 22 | 9.7 | 20.9 | 0.00 | 0.00 | 0.00 | 45 | 1017.4 |
| 20260502204534 | 11 | 355 | 4.8 | 14.5 | 0.00 | 0.00 | 0.00 | 43 | 1017.5 |
| 20260502204015 | 10 | 55 | 4.8 | 12.9 | 0.00 | 0.00 | 0.00 | 48 | 1017.5 |
| 20260502203516 | 10 | 58 | 4.8 | 19.3 | 0.00 | 0.00 | 0.00 | 47 | 1017.5 |
| 20260502203032 | 11 | 5 | 8.0 | 19.3 | 0.00 | 0.00 | 0.00 | 44 | 1017.4 |
| 20260502202515 | 11 | 63 | 9.7 | 19.3 | 0.00 | 0.00 | 0.00 | 44 | 1017.3 |
| 20260502202016 | 12 | 332 | 4.8 | 19.3 | 0.00 | 0.00 | 0.00 | 42 | 1017.4 |
| 20260502201535 | 12 | 36 | 9.7 | 19.3 | 0.00 | 0.00 | 0.00 | 44 | 1017.5 |
| 20260502201019 | 11 | 360 | 8.0 | 20.9 | 0.00 | 0.00 | 0.00 | 45 | 1017.6 |